#timestamp,LO_Frequency,Hit,Temp,Hum 
1487354415.3,286047145.5,N,0.0,0.0
1487354435.1,286047145.7,N,0.0,0.0
1487354436.0,286047145.7,N,0.0,0.0
1487354455.8,286047146.4,N,0.0,0.0
1487354475.7,286047146.8,Y,0.0,0.0
1487354495.5,286047012.2,N,0.0,0.0
1487354515.3,286047009.3,N,0.0,0.0
1487354535.2,286047009.6,N,0.0,0.0
1487354555.9,286047011.9,N,0.0,0.0
1487354575.7,286047010.9,N,0.0,0.0
1487354595.6,286047011.2,N,0.0,0.0
1487354615.4,286047010.9,N,0.0,0.0
1487354635.2,286047014.5,N,0.0,0.0
1487354655.1,286047013.8,N,0.0,0.0
1487354656.0,286047013.8,N,0.0,0.0
1487354675.8,286047013.5,N,0.0,0.0
1487354695.6,286047015.0,N,0.0,0.0
1487354715.5,286047014.8,N,0.0,0.0
1487354735.3,286047017.0,N,0.0,0.0
1487354755.1,286047012.5,N,0.0,0.0
1487354775.8,286047014.4,N,0.0,0.0
1487354795.7,286047016.5,N,0.0,0.0
1487354815.5,286047015.7,N,0.0,0.0
1487354835.3,286047018.7,N,0.0,0.0
1487354855.2,286047014.4,N,0.0,0.0
1487354875.9,286047013.8,N,0.0,0.0
1487354895.7,286047013.5,N,0.0,0.0
1487354915.6,286047012.5,N,0.0,0.0
1487354935.4,286047015.6,N,0.0,0.0
1487354955.2,286047011.9,N,0.0,0.0
1487354975.1,286047011.3,N,0.0,0.0
1487354976.0,286047011.3,N,0.0,0.0
1487354995.8,286047011.7,N,0.0,0.0
1487355015.6,286047010.2,N,0.0,0.0
1487355035.5,286047006.9,N,0.0,0.0
1487355055.3,286047006.6,N,0.0,0.0
1487355075.1,286047001.7,N,0.0,0.0
1487355095.9,286046997.3,N,0.0,0.0
1487355115.7,286046993.7,N,0.0,0.0
1487355135.5,286046994.3,N,0.0,0.0
1487355155.4,286046992.6,N,0.0,0.0
1487355175.2,286046990.6,N,0.0,0.0
1487355195.0,286046991.6,N,0.0,0.0
1487355195.9,286046991.6,N,0.0,0.0
1487355215.8,286046994.7,N,0.0,0.0
1487355235.6,286046994.4,N,0.0,0.0
1487355255.4,286046991.8,N,0.0,0.0
1487355275.2,286046992.2,N,0.0,0.0
1487355295.1,286046993.0,N,0.0,0.0
1487355296.0,286046993.0,N,0.0,0.0
1487355315.8,286046990.5,N,0.0,0.0
1487355335.6,286046990.8,N,0.0,0.0
1487355355.5,286046987.4,N,0.0,0.0
1487355375.3,286046985.4,N,0.0,0.0
1487355395.1,286046988.2,N,0.0,0.0
1487355415.9,286046982.6,N,0.0,0.0
1487355435.7,286046982.7,N,0.0,0.0
1487355455.5,286046980.8,N,0.0,0.0
1487355475.4,286046977.3,N,0.0,0.0
1487355495.2,286046978.0,N,0.0,0.0
1487355515.0,286046976.4,N,0.0,0.0
1487355515.9,286046976.4,N,0.0,0.0
1487355535.8,286046972.9,N,0.0,0.0
1487355555.6,286046974.7,N,0.0,0.0
1487355575.4,286046973.0,N,0.0,0.0
1487355595.3,286046971.2,N,0.0,0.0
1487355615.1,286046969.5,N,0.0,0.0
1487355616.0,286046969.5,N,0.0,0.0
1487355635.8,286046970.0,N,0.0,0.0
1487355655.7,286046968.6,N,0.0,0.0
1487355675.5,286046968.0,N,0.0,0.0
1487355695.3,286046964.6,N,0.0,0.0
1487355715.2,286046964.1,N,0.0,0.0
1487355735.9,286046964.2,N,0.0,0.0
1487355755.7,286046965.8,N,0.0,0.0
1487355775.6,286046963.6,N,0.0,0.0
1487355795.4,286046963.5,N,0.0,0.0
1487355815.2,286046962.6,N,0.0,0.0
1487355835.0,286046962.6,N,0.0,0.0
1487355836.0,286046962.6,N,0.0,0.0
1487355855.8,286046959.1,N,0.0,0.0
1487355875.6,286046961.2,N,0.0,0.0
1487355895.5,286046961.0,N,0.0,0.0
1487355915.3,286046957.0,N,0.0,0.0
1487355935.1,286046954.9,N,0.0,0.0
1487355955.8,286046955.1,N,0.0,0.0
1487355975.7,286046955.0,N,0.0,0.0
1487355995.5,286046954.7,N,0.0,0.0
1487356015.3,286046954.8,N,0.0,0.0
1487356035.2,286046952.8,N,0.0,0.0
1487356055.0,286046951.1,N,0.0,0.0
1487356055.9,286046951.1,N,0.0,0.0
1487356075.7,286046948.6,N,0.0,0.0
1487356095.6,286046947.2,N,0.0,0.0
1487356115.4,286046950.8,N,0.0,0.0
1487356135.2,286046948.0,N,0.0,0.0
1487356155.1,286046946.3,N,0.0,0.0
1487356156.0,286046946.3,N,0.0,0.0
1487356175.8,286046946.5,N,0.0,0.0
1487356195.6,286046944.4,N,0.0,0.0
1487356215.5,286046943.4,N,0.0,0.0
1487356235.3,286046939.8,N,0.0,0.0
1487356255.1,286046940.0,N,0.0,0.0
1487356275.9,286046934.1,N,0.0,0.0
1487356295.7,286046937.2,N,0.0,0.0
1487356315.5,286046934.7,N,0.0,0.0
1487356335.4,286046933.0,N,0.0,0.0
1487356355.2,286046934.0,N,0.0,0.0
1487356375.0,286046933.5,N,0.0,0.0
1487356375.9,286046933.5,N,0.0,0.0
1487356395.8,286046931.2,N,0.0,0.0
1487356415.6,286046930.3,N,0.0,0.0
1487356435.4,286046927.8,Y,0.0,0.0
1487356455.3,286046956.0,N,0.0,0.0
1487356475.1,286046953.3,N,0.0,0.0
1487356476.0,286046953.3,N,0.0,0.0
1487356495.8,286046955.2,N,0.0,0.0
1487356515.7,286046953.3,N,0.0,0.0
1487356535.5,286046952.2,N,0.0,0.0
1487356555.3,286046952.1,N,0.0,0.0
1487356575.2,286046951.3,N,0.0,0.0
1487356595.9,286046951.5,N,0.0,0.0
1487356615.7,286046951.8,N,0.0,0.0
1487356635.5,286046949.6,N,0.0,0.0
1487356655.4,286046943.9,N,0.0,0.0
1487356675.2,286046944.5,N,0.0,0.0
1487356695.1,286046944.0,Y,0.0,0.0
1487356696.0,286046944.0,Y,0.0,0.0
1487356715.8,286047023.2,N,0.0,0.0
1487356735.6,286047020.3,N,0.0,0.0
1487356755.5,286047025.5,N,0.0,0.0
1487356775.3,286047033.1,N,0.0,0.0
1487356795.1,286047036.9,N,0.0,0.0
1487356815.9,286047040.6,N,0.0,0.0
1487356835.7,286047042.9,N,0.0,0.0
1487356855.5,286047047.5,N,0.0,0.0
1487356875.4,286047043.1,N,0.0,0.0
1487356895.2,286047041.6,N,0.0,0.0
1487356915.0,286047043.1,N,0.0,0.0
1487356915.9,286047043.1,N,0.0,0.0
1487356935.7,286047043.0,N,0.0,0.0
1487356955.6,286047042.5,N,0.0,0.0
1487356975.4,286047040.5,N,0.0,0.0
1487356995.2,286047040.9,N,0.0,0.0
1487357015.1,286047037.0,N,0.0,0.0
1487357016.0,286047037.0,N,0.0,0.0
1487357035.8,286047036.9,N,0.0,0.0
1487357055.6,286047037.8,N,0.0,0.0
1487357075.5,286047035.3,N,0.0,0.0
1487357095.3,286047034.0,N,0.0,0.0
1487357115.1,286047034.4,N,0.0,0.0
1487357135.9,286047032.7,N,0.0,0.0
1487357155.7,286047032.6,N,0.0,0.0
1487357175.5,286047031.1,N,0.0,0.0
1487357195.4,286047028.5,N,0.0,0.0
1487357215.2,286047031.6,N,0.0,0.0
1487357235.0,286047031.0,N,0.0,0.0
1487357235.9,286047031.0,N,0.0,0.0
1487357255.8,286047025.6,N,0.0,0.0
1487357275.6,286047029.1,N,0.0,0.0
1487357295.4,286047028.3,N,0.0,0.0
1487357315.3,286047025.5,N,0.0,0.0
1487357335.1,286047025.2,N,0.0,0.0
1487357336.0,286047025.2,N,0.0,0.0
1487357355.8,286047024.0,N,0.0,0.0
1487357375.8,286047024.3,N,0.0,0.0
1487357395.7,286047028.3,N,0.0,0.0
1487357415.5,286047028.0,N,0.0,0.0
1487357435.3,286047028.4,N,0.0,0.0
1487357455.1,286047027.6,N,0.0,0.0
1487357475.9,286047028.4,N,0.0,0.0
1487357495.7,286047026.1,N,0.0,0.0
1487357515.5,286047027.5,N,0.0,0.0
1487357535.3,286047025.8,N,0.0,0.0
1487357555.2,286047022.2,N,0.0,0.0
1487357575.0,286047020.7,N,0.0,0.0
1487357575.9,286047020.7,N,0.0,0.0
1487357595.7,286047023.1,N,0.0,0.0
1487357615.6,286047021.2,N,0.0,0.0
1487357635.4,286047019.3,N,0.0,0.0
1487357655.2,286047021.5,N,0.0,0.0
1487357675.1,286047023.1,N,0.0,0.0
1487357676.0,286047023.1,N,0.0,0.0
1487357695.8,286047020.6,N,0.0,0.0
1487357715.6,286047022.0,N,0.0,0.0
1487357735.5,286047020.7,N,0.0,0.0
1487357755.3,286047022.8,N,0.0,0.0
1487357775.1,286047021.3,N,0.0,0.0
1487357795.9,286047023.4,N,0.0,0.0
1487357815.7,286047021.3,N,0.0,0.0
1487357835.5,286047023.0,N,0.0,0.0
1487357855.4,286047023.1,N,0.0,0.0
1487357875.2,286047020.8,N,0.0,0.0
1487357895.0,286047019.1,N,0.0,0.0
1487357895.9,286047019.1,N,0.0,0.0
1487357915.8,286047020.9,N,0.0,0.0
1487357935.6,286047022.1,N,0.0,0.0
1487357955.4,286047023.6,N,0.0,0.0
1487357975.3,286047023.6,N,0.0,0.0
1487357995.1,286047021.4,N,0.0,0.0
1487357996.0,286047021.4,N,0.0,0.0
